DW7857 Weather Reports


Display with metric or nautical units.
time (UTC)temp
F
wind
direction
speed
MPH
gust
MPH
rain 1hr
in
rain 24hr
in
rain mn
in
humidity
%
barometer
mb
20171121081011 52 0 0.0 0.0 0.00 0.02 0.00 75 1002.7
20171121080011 52 0 0.0 0.0 0.00 0.02 0.00 74 1003.1
20171121075011 52 0 0.0 0.0 0.00 0.02 0.00 74 1002.7
20171121074011 52 0 0.0 0.0 0.00 0.02 0.00 74 1002.5
20171121073011 52 214 1.0 8.0 0.00 0.02 0.00 74 1002.6
20171121072011 52 168 1.0 8.0 0.00 0.02 0.00 75 1002.4
20171121071011 52 0 0.0 0.0 0.00 0.02 0.00 75 1002.4
20171121070011 51 0 0.0 0.0 0.00 0.02 0.00 75 1002.7
20171121065011 51 0 0.0 0.0 0.00 0.02 0.00 74 1003.0
20171121064011 52 0 0.0 0.0 0.00 0.02 0.00 73 1002.6
20171121063011 52 225 1.0 4.0 0.00 0.02 0.00 73 1002.7
20171121062011 53 179 2.0 5.0 0.00 0.02 0.00 73 1002.7
20171121061011 53 189 3.0 6.0 0.00 0.02 0.00 74 1002.6
20171121060011 53 207 4.0 8.0 0.00 0.02 0.00 74 1002.7
20171121055011 53 215 2.0 7.0 0.00 0.02 0.00 75 1002.9
20171121054011 53 197 3.0 5.0 0.00 0.02 0.00 75 1002.9
20171121053011 54 202 5.0 11.0 0.00 0.02 0.00 76 1002.8
20171121052011 53 162 2.0 10.0 0.00 0.02 0.00 76 1003.1
20171121051011 53 189 3.0 6.0 0.00 0.02 0.00 76 1003.1
20171121050011 53 176 1.0 4.0 0.00 0.02 0.00 76 1003.1
20171121045011 53 189 1.0 4.0 0.00 0.02 0.00 76 1003.2
20171121044011 53 164 1.0 4.0 0.00 0.02 0.00 75 1003.5
20171121043011 53 239 3.0 7.0 0.00 0.02 0.00 75 1003.1
20171121042011 53 215 3.0 10.0 0.00 0.02 0.00 75 1003.3
20171121041011 53 235 2.0 5.0 0.00 0.02 0.00 75 1003.4
20171121040012 53 229 1.0 4.0 0.00 0.02 0.00 75 1003.5
20171121035011 53 229 2.0 9.0 0.00 0.02 0.00 75 1003.7
20171121034012 53 228 3.0 8.0 0.00 0.02 0.00 75 1003.6
20171121033011 53 220 2.0 7.0 0.00 0.02 0.00 75 1003.6
20171121032011 53 240 1.0 4.0 0.00 0.02 0.00 75 1003.6
20171121031011 53 194 4.0 8.0 0.00 0.02 0.00 75 1003.8
20171121030011 53 210 5.0 8.0 0.00 0.04 0.00 76 1003.8
20171121025011 53 200 5.0 7.0 0.00 0.04 0.00 76 1003.9
20171121024011 52 213 5.0 7.0 0.00 0.04 0.00 76 1004.0
20171121023011 53 215 4.0 8.0 0.00 0.04 0.00 76 1004.2
20171121022011 53 208 5.0 8.0 0.00 0.04 0.00 76 1004.2
20171121021011 53 198 6.0 10.0 0.00 0.04 0.00 76 1004.5
20171121020011 53 213 6.0 10.0 0.00 0.04 0.00 76 1004.3
20171121015011 53 212 7.0 9.0 0.00 0.04 0.00 76 1004.5
20171121014011 53 188 7.0 8.0 0.00 0.04 0.00 77 1004.4
20171121013011 53 201 6.0 10.0 0.00 0.04 0.00 77 1004.5
20171121012011 53 191 6.0 8.0 0.00 0.04 0.00 78 1004.5
20171121011011 53 193 7.0 8.0 0.00 0.04 0.00 77 1004.7
20171121010014 53 193 6.0 8.0 0.00 0.04 0.00 77 1004.8
20171121005011 53 217 5.0 8.0 0.00 0.04 0.00 76 1004.6
20171121004017 53 204 6.0 8.0 0.00 0.04 0.00 77 1004.8
20171121003017 54 190 6.0 8.0 0.00 0.04 0.00 77 1005.0
20171121002017 54 213 5.0 8.0 0.00 0.04 0.00 77 1005.0
20171121001017 54 164 3.0 7.0 0.00 0.04 0.00 77 1005.1
20171121000022 54 225 4.0 8.0 0.00 0.04 0.00 77 1005.2
20171120235017 54 198 5.0 9.0 0.00 0.04 0.04 77 1005.0
20171120234017 54 235 6.0 10.0 0.00 0.04 0.04 77 1005.0
20171120233018 54 218 7.0 9.0 0.00 0.04 0.04 77 1005.0
20171120231017 53 206 7.0 9.0 0.00 0.04 0.04 78 1005.1
20171120230017 53 207 6.0 8.0 0.00 0.04 0.04 78 1004.8
20171120225018 53 212 5.0 8.0 0.00 0.04 0.04 78 1005.0
20171120224018 53 201 3.0 7.0 0.00 0.04 0.04 79 1005.1
20171120223018 53 173 3.0 5.0 0.00 0.04 0.04 79 1005.2
20171120222019 53 139 3.0 5.0 0.00 0.04 0.04 79 1005.4
20171120221018 53 161 3.0 8.0 0.00 0.04 0.04 80 1005.1
20171120220017 53 136 1.0 4.0 0.00 0.04 0.04 79 1005.2
20171120215017 53 179 3.0 6.0 0.00 0.04 0.04 79 1005.2
20171120214018 53 188 4.0 7.0 0.00 0.04 0.04 79 1005.2
20171120213018 53 199 2.0 5.0 0.00 0.04 0.04 79 1005.4
20171120212018 53 178 4.0 5.0 0.00 0.04 0.04 79 1005.1
20171120211018 53 163 2.0 8.0 0.00 0.04 0.04 79 1005.1
20171120210018 53 209 2.0 7.0 0.00 0.04 0.04 79 1005.4
20171120205018 53 207 4.0 6.0 0.00 0.04 0.04 79 1005.5
20171120204018 53 190 5.0 7.0 0.00 0.04 0.04 79 1005.1
20171120203018 53 192 4.0 8.0 0.00 0.04 0.04 79 1005.3
20171120202018 53 182 4.0 5.0 0.00 0.04 0.04 79 1005.4
20171120201018 53 196 6.0 8.0 0.00 0.04 0.04 80 1005.4
20171120200018 53 210 5.0 7.0 0.00 0.04 0.04 80 1005.5
20171120195018 53 197 3.0 5.0 0.00 0.04 0.04 80 1005.4
20171120194018 53 227 2.0 5.0 0.00 0.04 0.04 80 1005.2
20171120193018 53 206 2.0 4.0 0.00 0.04 0.04 80 1005.3
20171120192018 53 175 2.0 6.0 0.00 0.04 0.04 79 1005.3
20171120191019 53 192 5.0 7.0 0.00 0.04 0.04 79 1005.2
20171120190019 53 169 5.0 8.0 0.00 0.04 0.04 78 1005.4
20171120185010 53 189 5.0 7.0 0.00 0.04 0.04 76 1005.3
20171120184010 54 195 5.0 8.0 0.00 0.04 0.04 76 1005.5
20171120183010 54 196 6.0 8.0 0.00 0.04 0.04 75 1005.3
20171120182010 54 198 6.0 10.0 0.00 0.04 0.04 74 1005.1
20171120181010 54 224 6.0 10.0 0.00 0.04 0.04 74 1004.8
20171120180010 54 164 7.0 11.0 0.00 0.04 0.04 75 1004.9
20171120175010 54 197 7.0 12.0 0.00 0.04 0.04 73 1005.0
20171120174010 55 236 7.0 10.0 0.00 0.04 0.04 72 1004.9
20171120173010 55 285 7.0 10.0 0.00 0.04 0.04 72 1004.7
20171120172010 55 231 8.0 12.0 0.00 0.04 0.04 72 1004.6
20171120171010 55 286 10.0 12.0 0.00 0.04 0.04 72 1004.8
20171120170010 55 254 7.0 10.0 0.00 0.04 0.04 72 1004.7
20171120165010 55 216 5.0 8.0 0.00 0.04 0.04 72 1004.9
20171120164010 55 268 4.0 8.0 0.00 0.04 0.04 72 1004.8
20171120163010 55 250 5.0 7.0 0.00 0.04 0.04 72 1004.9
20171120162010 55 215 5.0 8.0 0.00 0.04 0.04 72 1004.9
20171120161010 55 243 6.0 8.0 0.00 0.04 0.04 72 1005.2
20171120160012 56 222 5.0 8.0 0.00 0.04 0.04 71 1005.0
20171120155010 56 248 6.0 9.0 0.00 0.04 0.04 71 1005.0
20171120154010 56 228 6.0 9.0 0.00 0.04 0.04 71 1005.1
20171120153010 56 259 7.0 9.0 0.00 0.04 0.04 71 1004.8
20171120152010 56 204 9.0 11.0 0.00 0.04 0.04 71 1005.0
20171120151011 56 219 9.0 12.0 0.00 0.04 0.04 71 1005.2
20171120150010 56 191 7.0 10.0 0.00 0.04 0.04 72 1005.0
20171120145010 56 263 8.0 11.0 0.00 0.04 0.04 72 1005.2
20171120144010 56 234 6.0 8.0 0.00 0.04 0.04 73 1005.1
20171120143010 56 165 6.0 10.0 0.01 0.04 0.04 73 1005.5
20171120142010 56 206 6.0 10.0 0.01 0.04 0.04 74 1005.5
20171120141010 55 184 7.0 10.0 0.01 0.04 0.04 76 1005.5
20171120140016 55 201 5.0 7.0 0.01 0.04 0.04 77 1005.5
20171120135011 54 212 4.0 6.0 0.01 0.04 0.04 77 1005.8
20171120134010 54 178 5.0 8.0 0.02 0.04 0.04 77 1005.7
20171120133010 54 202 5.0 8.0 0.01 0.02 0.02 77 1006.0
20171120132010 54 182 6.0 11.0 0.01 0.02 0.02 76 1006.3
20171120131010 54 207 5.0 8.0 0.01 0.02 0.02 76 1006.4
20171120130014 54 230 6.0 10.0 0.01 0.02 0.02 75 1006.3
20171120125010 55 184 6.0 8.0 0.01 0.02 0.02 74 1006.5
20171120124012 55 204 6.0 8.0 0.00 0.01 0.01 74 1006.3
20171120123015 55 193 6.0 8.0 0.00 0.01 0.01 75 1006.5
20171120122010 54 236 7.0 9.0 0.00 0.01 0.01 78 1006.4
20171120121010 54 194 7.0 9.0 0.00 0.01 0.01 77 1006.6
20171120120010 54 209 8.0 11.0 0.00 0.01 0.01 72 1006.6
20171120115010 55 212 6.0 11.0 0.00 0.01 0.01 73 1006.8
20171120114010 54 202 8.0 14.0 0.00 0.01 0.01 77 1007.0
20171120113010 54 235 9.0 11.0 0.00 0.01 0.01 78 1006.9
20171120112010 53 195 7.0 10.0 0.00 0.01 0.01 78 1007.1
20171120111010 53 178 7.0 13.0 0.00 0.01 0.01 76 1007.4
20171120110010 54 222 8.0 11.0 0.00 0.01 0.01 74 1007.3
20171120105010 54 193 8.0 11.0 0.00 0.01 0.01 72 1007.5
20171120104010 55 209 8.0 10.0 0.00 0.01 0.01 70 1007.6
20171120103010 54 66 8.0 11.0 0.00 0.01 0.01 70 1007.6
20171120102010 54 245 8.0 12.0 0.00 0.02 0.01 72 1007.7
20171120101010 54 201 8.0 11.0 0.00 0.02 0.01 72 1007.6
20171120100010 54 198 8.0 15.0 0.00 0.02 0.01 73 1007.6
20171120095010 54 228 6.0 10.0 0.00 0.02 0.01 73 1007.7
20171120094011 53 261 7.0 11.0 0.00 0.02 0.01 75 1007.5
20171120093010 53 201 6.0 10.0 0.00 0.02 0.01 77 1007.6
20171120092010 53 209 6.0 9.0 0.00 0.02 0.01 77 1007.8
20171120091011 52 225 6.0 8.0 0.00 0.02 0.01 76 1008.0
20171120090014 52 216 6.0 11.0 0.00 0.02 0.01 75 1008.1
20171120085010 52 209 7.0 13.0 0.00 0.02 0.01 74 1007.8
20171120084010 52 197 7.0 9.0 0.00 0.02 0.01 73 1008.0
20171120083010 52 165 8.0 11.0 0.00 0.02 0.01 73 1008.0
20171120082010 52 188 7.0 10.0 0.00 0.02 0.01 72 1008.3